Regional Weather Roundup
Issued by NWS

Home | Current Version | Previous Version | Graphics & Text | Print | Product List | Glossary On
Versions: 1 2 3 4 5 6 7 8 9 10 11 12 13 14 15 16 17 18 19 20 21 22 23 24 25 26 27 28 29 30 31 32 33 34 35 36 37 38 39 40 41 42 43 44 45 46 47 48 49 50
000
ASUS45 KCYS 021210
RWRWY

WYOMING REGIONAL WEATHER ROUNDUP
NATIONAL WEATHER SERVICE CHEYENNE WY
500 AM MST FRI DEC 02 2016

NOTE:  "FAIR" INDICATES FEW OR NO CLOUDS BELOW 12,000 FEET
WITH NO SIGNIFICANT WEATHER AND/OR OBSTRUCTIONS TO VISIBILITY.

WYZ001-021300-
YELLOWSTONE NATIONAL PARK

CITY           SKY/WX    TMP DP  RH WIND       PRES   REMARKS
LK YELLOWSTONE   N/A     10   8  92 CALM      30.10S
6HR MIN TEMP:   4; 6HR MAX TEMP:  10;

W YELLOWSTONE  NOT AVBL

$$
WYZ002>013-054>058-071-098>099-021300-
NORTHERN WYOMING

CITY           SKY/WX    TMP DP  RH WIND       PRES   REMARKS
JACKSON        CLOUDY    16  14  93 CALM      30.13S
CODY           CLOUDY    23  15  71 SW3       30.14R
GREYBULL       CLOUDY    25  19  78 SE5       30.16R WCI  19
6HR MIN TEMP:  23; 6HR MAX TEMP:  28;

WORLAND        MOCLDY    23  20  88 S8        30.15R WCI  14
6HR MIN TEMP:  20; 6HR MAX TEMP:  30;

SHERIDAN       CLOUDY    29  24  82 S3        30.15R
6HR MIN TEMP:  24; 6HR MAX TEMP:  33;

BUFFALO        MOCLDY    28  15  58 W9        30.12R WCI  19
6HR MIN TEMP:  26; 6HR MAX TEMP:  33;

GILLETTE       FAIR      25  21  85 W10       30.11R WCI  15
6HR MIN TEMP:  22; 6HR MAX TEMP:  30;

HULETT         FAIR      21  19  93 SW9       30.12R WCI  11
NEWCASTLE      FAIR      23  23 100 CALM      30.13R

$$
WYZ014>020-022>026-101>103-021300-
CENTRAL WYOMING

CITY           SKY/WX    TMP DP  RH WIND       PRES   REMARKS
BIG PINEY      FAIR       7   4  87 N7        30.10R WCI  -5
6HR MIN TEMP:   4; 6HR MAX TEMP:  11;

PINEDALE       FAIR       0  -4  85 N13       30.09S WCI -18
DUBOIS         FAIR       9   3  78 W8        30.08R WCI  -4
LANDER         CLOUDY    21  18  88 W7        30.13R WCI  12
6HR MIN TEMP:  14; 6HR MAX TEMP:  22; 6HR PCP:  0.01;

RIVERTON       FAIR      20  15  81 NW10      30.13R WCI   9
6HR MIN TEMP:  17; 6HR MAX TEMP:  22; 6HR PCP: TRACE;

CASPER         LGT SNOW  22  21  96 W5        30.11R FOG     WCI  16
6HR MIN TEMP:  18; 6HR MAX TEMP:  25; 6HR PCP: TRACE;

DOUGLAS        CLOUDY    23  20  88 N6        30.12R WCI  16
6HR MIN TEMP:  20; 6HR MAX TEMP:  27; 6HR PCP: TRACE;


$$
WYZ021-027>030-104>119-021300-
SOUTHERN WYOMING

CITY           SKY/WX    TMP DP  RH WIND       PRES   REMARKS
EVANSTON       CLOUDY    16  12  84 N5        30.08R WCI   9
6HR MIN TEMP:  16; 6HR MAX TEMP:  19; 6HR PCP: TRACE;

FORT BRIDGER   CLOUDY    15  15  99 W5        30.11R WCI   8
ROCK SPRINGS   CLOUDY    13   9  84 W5        30.09R WCI   5
6HR MIN TEMP:  11; 6HR MAX TEMP:  16;

DIXON          CLOUDY    18  14  86 E6        30.11S WCI  10
RAWLINS        CLOUDY    13   9  84 CALM      30.08R
6HR MIN TEMP:   6; 6HR MAX TEMP:  19;

SARATOGA       FAIR       3   1  92 SE3       30.08R
LARAMIE        FAIR      14  10  84 NE6       30.04R WCI   5
6HR MIN TEMP:   9; 6HR MAX TEMP:  19;

CHEYENNE       CLOUDY    24  15  68 NW8       30.07S WCI  15
6HR MIN TEMP:  21; 6HR MAX TEMP:  26; 6HR PCP: TRACE;

TORRINGTON     FAIR      15  12  88 N3        30.13R
6HR MIN TEMP:  15; 6HR MAX TEMP:  27;

PINE BLUFFS    CLOUDY    19  16  86 N7        30.10S WCI  10

$$



USA.gov is the U.S. government's official web portal to all federal, state and local government web resources and services.